[[{"header":{"parameterUnit":"m.s-1","parameterCategory":1,"la1":30.2991,"la2":30.254,"lo1":-89.0895,"lo2":-89.0444,"dy":0.0017,"dx":0.0017,"nx":28,"ny":28,"refTime":"2024-05-09T03:00:00:Z","depth":0,"parameterNumber":2,"parameterNumberName":"U-component_of_WINDS"},"data":[0,0,0,0,0,0,0,0,0,0,0,0,0,0,0,0,0,0,0,0,0,0,0,0,0,0,0,0,0,0,0,0,0,0,0,0,0,0,0,0,0,0,0,0,0,0,0,0,0,0,0,0,0,0,0,0,0,0,-0.5192,-0.5192,0,-0.5142,-0.5141,-0.5141,-0.5116,-0.5116,-0.5116,-0.5116,-0.5063,-0.5061,-0.506,0,0,0,0,0,0,0,0,0,0,0,0,0,-0.5266,-0.5265,-0.5192,-0.5192,-0.5191,-0.5142,-0.5141,-0.514,-0.5116,-0.5116,-0.5116,-0.5116,-0.5063,-0.5061,-0.506,0,0,0,0,0,0,0,0,0,0,0,0,0,-0.5227,-0.5264,-0.5192,-0.5173,-0.5171,-0.5142,-0.5141,-0.514,-0.5116,-0.5116,-0.5116,-0.5116,-0.5064,-0.5062,-0.506,-0.5045,0,0,-0.5053,-0.5052,0,0,0,0,0,0,0,0,-0.5229,-0.5224,-0.5177,-0.5174,-0.5172,-0.5135,-0.5147,-0.5108,-0.5116,-0.5137,-0.5116,-0.5116,-0.5087,-0.5083,-0.5073,-0.5043,-0.5041,-0.5053,-0.5051,-0.505,-0.505,0,0,0,0,0,0,0,-0.5232,-0.5226,-0.5172,-0.5176,-0.5173,-0.5166,-0.5161,-0.514,-0.5112,-0.5135,-0.5133,-0.5128,-0.5085,-0.5075,-0.5072,-0.504,-0.5053,-0.5051,-0.5049,-0.5049,-0.4995,-0.4995,0,0,0,0,0,0,-0.5238,-0.5228,-0.5174,-0.5171,-0.5201,-0.5165,-0.5159,-0.5147,-0.5112,-0.5107,-0.5128,-0.5127,-0.5079,-0.5074,-0.507,-0.505,-0.505,-0.5048,-0.5047,-0.4995,-0.4995,-0.4995,0,0,0,0,0,0,-0.5239,-0.5233,-0.5176,-0.5199,-0.5191,-0.5164,-0.5151,-0.5146,-0.5136,-0.5107,-0.5102,-0.5123,-0.5079,-0.5073,-0.5052,-0.5048,-0.5047,-0.5045,-0.4995,-0.4995,-0.4995,-0.5012,0,0,0,0,0,0,-0.5242,-0.5234,-0.5229,-0.5199,-0.519,-0.5159,-0.5151,-0.5145,-0.5132,-0.5131,-0.5101,-0.5096,-0.5078,-0.5055,-0.5049,-0.5045,-0.5044,-0.4995,-0.4995,-0.4995,-0.5012,-0.5013,-0.5014,0,0,0,0,0,-0.5244,-0.5235,-0.5229,-0.5222,-0.5183,-0.5159,-0.5154,-0.5135,-0.5132,-0.5126,-0.5108,-0.5097,-0.505,-0.5053,-0.5047,-0.5042,-0.4995,-0.4995,-0.4995,-0.5012,-0.5013,-0.5014,0,0,0,0,0,0,-0.5265,-0.5231,-0.5223,-0.5205,-0.5185,-0.5155,-0.5147,-0.5137,-0.5117,-0.5116,-0.5093,-0.5086,-0.5067,-0.5052,-0.5057,-0.5026,-0.5021,-0.502,-0.5036,-0.5037,-0.5038,-0.5042,-0.5042,0,0,0,0,0,-0.5268,-0.5251,-0.5223,-0.5209,-0.5199,-0.5175,-0.5164,-0.5151,-0.513,-0.5121,-0.5101,-0.508,-0.506,-0.5048,-0.5028,-0.501,-0.5002,-0.5003,-0.5004,-0.5005,-0.5004,-0.4992,-0.4992,-0.4994,-0.4994,-0.4994,0,0,-0.5272,-0.5252,-0.5243,-0.5212,-0.5196,-0.5179,-0.5168,-0.5151,-0.5138,-0.5118,-0.5097,-0.5082,-0.5057,-0.5037,-0.5027,-0.5024,-0.5001,-0.5004,-0.5005,-0.5003,-0.4992,-0.4992,-0.4991,-0.4994,-0.4994,-0.4994,0,0,-0.5272,-0.5255,-0.5242,-0.5225,-0.52,-0.5184,-0.5181,-0.5153,-0.5142,-0.512,-0.5105,-0.5089,-0.5056,-0.5039,-0.5026,-0.5019,-0.5007,-0.5013,-0.5017,-0.5006,-0.5006,-0.5006,-0.5003,-0.5002,-0.5012,-0.5012,-0.5012,0,-0.5281,-0.5256,-0.5236,-0.522,-0.5206,-0.5188,-0.5174,-0.5159,-0.5128,-0.5119,-0.5116,-0.5074,-0.5056,-0.5032,-0.503,-0.502,-0.5015,-0.5016,-0.5008,-0.5007,-0.5007,-0.5003,-0.5003,-0.5013,-0.5013,-0.5013,-0.5012,0,-0.5268,-0.525,-0.5242,-0.5214,-0.52,-0.5185,-0.5162,-0.515,-0.5138,-0.5122,-0.51,-0.5078,-0.5053,-0.5047,-0.5035,-0.502,-0.5019,-0.5012,-0.5007,-0.5008,-0.5004,-0.5003,-0.5014,-0.5014,-0.5013,-0.5013,0,0,-0.5279,-0.524,-0.5237,-0.5224,-0.5195,-0.5181,-0.5165,-0.5141,-0.5131,-0.5111,-0.5096,-0.5068,-0.5062,-0.5047,-0.5033,-0.5023,-0.5019,-0.5018,-0.5017,-0.5018,-0.5001,-0.5006,-0.5005,-0.5011,-0.5011,-0.5011,-0.5003,0,-0.5275,-0.5245,-0.5227,-0.5204,-0.5188,-0.517,-0.5155,-0.5136,-0.512,-0.5103,-0.5086,-0.5067,-0.506,-0.5051,-0.5041,-0.5022,-0.5015,-0.5022,-0.4997,-0.4996,-0.5003,-0.5003,-0.5009,-0.5002,-0.5001,-0.5001,-0.5001,0,-0.5266,-0.5246,-0.5222,-0.5194,-0.5187,-0.5174,-0.5151,-0.5135,-0.5112,-0.5102,-0.5085,-0.5071,-0.5052,-0.5049,-0.5023,-0.5028,-0.5017,-0.5006,-0.5005,-0.5001,-0.4998,-0.4999,-0.5,-0.4999,-0.4999,-0.4999,-0.4999,0,-0.5276,-0.5244,-0.5225,-0.5214,-0.5181,-0.5173,-0.5159,-0.5136,-0.5123,-0.5102,-0.5094,-0.5071,-0.5059,-0.5041,-0.5021,-0.5021,-0.4997,-0.4992,-0.4987,-0.4987,-0.4982,-0.4983,-0.498,-0.4976,-0.4976,-0.4976,-0.4976,0,-0.5273,-0.5259,-0.5229,-0.5217,-0.5201,-0.518,-0.5164,-0.5148,-0.5128,-0.5112,-0.5096,-0.5081,-0.5056,-0.5039,-0.5023,-0.5003,-0.4997,-0.4988,-0.4984,-0.4989,-0.499,-0.4981,-0.4981,-0.4975,-0.4975,-0.4975,-0.4975,0,-0.5281,-0.5261,-0.5239,-0.521,-0.5203,-0.5192,-0.5166,-0.5154,-0.5138,-0.5119,-0.5113,-0.5087,-0.5066,-0.5044,-0.5015,-0.5004,-0.4985,-0.4979,-0.4993,-0.499,-0.4986,-0.4987,-0.4978,-0.4975,-0.4973,-0.4973,-0.4973,0,-0.528,-0.5269,-0.5239,-0.5227,-0.5214,-0.5196,-0.5183,-0.5161,-0.5148,-0.5121,-0.5112,-0.5089,-0.507,-0.5036,-0.5015,-0.4992,-0.4986,-0.4984,-0.4982,-0.4988,-0.4985,-0.4986,-0.4985,-0.4985,-0.4985,-0.4985,-0.4985,0,-0.5281,-0.5271,-0.5253,-0.5231,-0.5215,-0.5197,-0.5177,-0.5169,-0.5144,-0.513,-0.5108,-0.5093,-0.5063,-0.5041,-0.5016,-0.5001,-0.4989,-0.4986,-0.4983,-0.4989,-0.4997,-0.4992,-0.4994,-0.4986,-0.4986,-0.4986,-0.4986,-0.4986,-0.5284,-0.5273,-0.525,-0.523,-0.5213,-0.5196,-0.5183,-0.5165,-0.5146,-0.5121,-0.5109,-0.5087,-0.5064,-0.5029,-0.5014,-0.4996,-0.4993,-0.499,-0.4989,-0.4988,-0.4989,-0.5,-0.4992,-0.4992,-0.4992,-0.4992,-0.4992,0,-0.5283,-0.5267,-0.5249,-0.5223,-0.5207,-0.5197,-0.5176,-0.5163,-0.5144,-0.5123,-0.5105,-0.5079,-0.5058,-0.5034,-0.5011,-0.5001,-0.4995,-0.4996,-0.4996,-0.4992,-0.4994,-0.4998,-0.5001,-0.5001,-0.5001,-0.5001,-0.5001,-0.5001,-0.5281,-0.5261,-0.5249,-0.5221,-0.5205,-0.5184,-0.5172,-0.5156,-0.5139,-0.5112,-0.5094,-0.5079,-0.5057,-0.5032,-0.5011,-0.5005,-0.4997,-0.4999,-0.4991,-0.4993,-0.4992,-0.4992,-0.4996,-0.4998,-0.4998,-0.4991,-0.4991,-0.4991]},{"header":{"parameterUnit":"m.s-1","parameterCategory":1,"la1":30.2991,"la2":30.254,"lo1":-89.0895,"lo2":-89.0444,"dy":0.0017,"dx":0.0017,"nx":28,"ny":28,"refTime":"2024-05-09T03:00:00:Z","depth":0,"parameterNumber":3,"parameterNumberName":"V-component_of_WINDS"},"data":[0,0,0,0,0,0,0,0,0,0,0,0,0,0,0,0,0,0,0,0,0,0,0,0,0,0,0,0,0,0,0,0,0,0,0,0,0,0,0,0,0,0,0,0,0,0,0,0,0,0,0,0,0,0,0,0,0,0,5.9778,5.9779,0,5.9895,5.9897,5.9898,5.9911,5.991,5.9909,5.9908,6.0026,6.003,6.0034,0,0,0,0,0,0,0,0,0,0,0,0,0,5.9562,5.9566,5.9777,5.9779,5.978,5.9895,5.9897,5.9898,5.9912,5.991,5.9909,5.9907,6.0024,6.0029,6.0034,0,0,0,0,0,0,0,0,0,0,0,0,0,5.9665,5.9567,5.9777,5.9801,5.9804,5.9895,5.9897,5.9899,5.9912,5.991,5.9908,5.9907,6.0023,6.0029,6.0035,6.0109,0,0,6.0054,6.0057,0,0,0,0,0,0,0,0,5.966,5.9673,5.9796,5.9799,5.9803,5.9887,5.9864,5.9969,5.9912,5.9871,5.9908,5.9906,5.9981,5.999,6.0016,6.0115,6.012,6.0055,6.0059,6.0062,6.0063,0,0,0,0,0,0,0,5.9652,5.9668,5.9824,5.9798,5.9802,5.9805,5.9818,5.9884,5.9934,5.9874,5.9876,5.989,5.9982,6.001,6.0019,6.0121,6.0055,6.006,6.0064,6.0067,6.0289,6.0291,0,0,0,0,0,0,5.9641,5.9662,5.982,5.9827,5.9726,5.981,5.9825,5.9862,5.9933,5.9943,5.9891,5.989,6.0,6.0012,6.0023,6.0116,6.0062,6.0067,6.0071,6.0287,6.0289,6.0292,0,0,0,0,0,0,5.9636,5.9655,5.9815,5.9745,5.9766,5.9816,5.9858,5.9865,5.9893,5.9946,5.9955,5.991,5.9999,6.0014,6.0088,6.0121,6.007,6.0076,6.0284,6.0288,6.029,6.0302,0,0,0,0,0,0,5.963,5.9653,5.9682,5.9746,5.977,5.9879,5.986,5.9869,5.9904,5.9904,5.9966,5.9975,5.9999,6.0079,6.0095,6.0128,6.0081,6.0282,6.0286,6.0289,6.0299,6.0305,6.0311,0,0,0,0,0,5.9623,5.968,5.9684,5.9703,5.9807,5.9881,5.9894,5.9922,5.9907,5.9936,5.9971,5.9973,6.0114,6.0086,6.0104,6.014,6.028,6.0285,6.0289,6.0296,6.0304,6.031,0,0,0,0,0,0,5.9617,5.9688,5.9694,5.9773,5.9821,5.9883,5.9921,5.9928,5.9981,5.9978,6.0009,6.0023,6.0096,6.0125,6.0093,6.0217,6.0196,6.0204,6.0195,6.0203,6.0208,6.02,6.0086,0,0,0,0,0,5.9625,5.968,5.9739,5.9804,5.9828,5.987,5.9903,5.992,5.9971,5.9991,6.003,6.0079,6.0134,6.017,6.0224,6.0303,6.0318,6.0337,6.0343,6.0347,6.0354,6.0401,6.041,6.0307,6.0307,6.0307,0,0,5.9642,5.9688,5.9721,5.9804,5.9843,5.9899,5.9887,5.9946,5.9988,5.9999,6.0072,6.0103,6.0159,6.0237,6.0273,6.0264,6.0386,6.0353,6.0356,6.0361,6.0406,6.0416,6.0425,6.031,6.031,6.0309,0,0,5.9703,5.9742,5.9802,5.9842,5.9902,5.993,5.9944,6.0006,6.0027,6.0101,6.0112,6.0161,6.0256,6.0296,6.0328,6.0406,6.0411,6.0423,6.0453,6.0497,6.0505,6.0513,6.0542,6.0552,6.0429,6.043,6.043,0,5.9716,5.9801,5.9831,5.9891,5.9927,5.9942,6.0002,6.0039,6.0113,6.0138,6.0127,6.0247,6.0285,6.0374,6.0393,6.0418,6.0436,6.0416,6.0502,6.051,6.0517,6.0545,6.0556,6.0431,6.0431,6.043,6.043,0,5.9816,5.9875,5.9915,5.9989,6.003,6.0089,6.0127,6.0165,6.0179,6.0209,6.0285,6.0332,6.0396,6.0418,6.0431,6.0509,6.0502,6.0496,6.0475,6.0528,6.0554,6.0565,6.0432,6.0432,6.0432,6.0431,0,0,5.9875,5.9965,5.998,6.0014,6.0082,6.0128,6.0188,6.0253,6.0286,6.0336,6.0388,6.0469,6.0465,6.0502,6.052,6.0559,6.062,6.0549,6.0551,6.0561,6.0709,6.0714,6.0726,6.0623,6.0625,6.0627,6.0705,0,5.9944,6.0053,6.0082,6.0175,6.0231,6.0246,6.0299,6.0347,6.0376,6.0427,6.0459,6.0517,6.0506,6.0529,6.0568,6.0604,6.065,6.0598,6.0672,6.0674,6.0658,6.074,6.0744,6.0816,6.0716,6.0717,6.0719,0,6.0039,6.0094,6.0193,6.0256,6.028,6.0327,6.039,6.0438,6.0493,6.0511,6.0554,6.0569,6.0633,6.0609,6.0698,6.0662,6.0694,6.0716,6.072,6.0728,6.07,6.0751,6.0839,6.085,6.0735,6.0734,6.0733,0,6.0074,6.0172,6.0245,6.0273,6.0348,6.0381,6.0413,6.0466,6.0504,6.0558,6.0583,6.0643,6.0677,6.0723,6.0754,6.0733,6.0841,6.0819,6.0859,6.0858,6.0881,6.0879,6.0976,6.09,6.09,6.09,6.0899,0,6.0148,6.0208,6.0262,6.0306,6.0374,6.0407,6.0474,6.0506,6.0554,6.0605,6.0621,6.0669,6.0707,6.076,6.0784,6.0855,6.0869,6.0887,6.0893,6.0886,6.0884,6.0908,6.0904,6.0903,6.0902,6.0901,6.0901,0,6.0199,6.0237,6.0317,6.0382,6.04,6.0447,6.0503,6.0547,6.0577,6.0642,6.0659,6.0707,6.077,6.0806,6.0885,6.0902,6.0981,6.0984,6.0963,6.0966,6.1004,6.1,6.112,6.1138,6.1049,6.105,6.105,0,6.0244,6.0291,6.0362,6.0398,6.0432,6.0489,6.0529,6.0563,6.0602,6.0669,6.0705,6.077,6.0824,6.0924,6.0966,6.1027,6.1032,6.107,6.1041,6.1033,6.1034,6.1031,6.1037,6.1075,6.1076,6.1076,6.1077,0,6.0321,6.0338,6.0394,6.0458,6.0505,6.0556,6.0606,6.0635,6.0677,6.0721,6.0787,6.0829,6.0911,6.0975,6.104,6.1073,6.1083,6.1086,6.1098,6.1092,6.1079,6.1088,6.0978,6.1083,6.1082,6.1082,6.1081,6.1081,6.0371,6.0415,6.0472,6.0534,6.0577,6.0624,6.067,6.0707,6.0762,6.0833,6.0849,6.0919,6.0973,6.1062,6.1097,6.1152,6.1145,6.1163,6.1167,6.1172,6.1174,6.1069,6.1163,6.1163,6.1163,6.1163,6.1163,0,6.045,6.0488,6.0546,6.0617,6.0667,6.0672,6.0729,6.077,6.0832,6.0882,6.0935,6.1012,6.1075,6.1122,6.1186,6.1221,6.1227,6.1237,6.1235,6.1243,6.1175,6.1159,6.1231,6.1231,6.1231,6.1231,6.1231,6.1231,6.0497,6.0572,6.0596,6.0691,6.0729,6.0798,6.083,6.0875,6.0916,6.1001,6.1054,6.1084,6.1134,6.1202,6.1261,6.1273,6.1296,6.1306,6.1319,6.1255,6.1247,6.1241,6.1225,6.131,6.131,6.1382,6.1383,6.1383]}]]